Regional Weather Roundup
Issued by NWS San Diego, CA

Home | Current Version | Previous Version | Text Only | Print | Product List | Glossary On
Versions: 1 2 3 4 5 6 7 8 9 10 11 12 13 14 15 16 17 18 19 20 21 22 23 24 25 26 27 28
000
ASUS46 KSGX 011911
RWRSGX

SAN DIEGO HOURLY WEATHER ROUNDUP
NATIONAL WEATHER SERVICE SAN DIEGO CA
1200 PM PDT SUN MAY 01 2016

NOTE: "FAIR" INDICATES FEW OR NO CLOUDS BELOW 12,000 FEET WITH NO
SIGNIFICANT WEATHER AND/OR OBSTRUCTIONS TO VISIBILITY.

CAZ042-043-060-061-PZZ750-775-012000-

GREATER SAN DIEGO AREA

CITY           SKY/WX    TMP DP  RH WIND       PRES   REMARKS
LINDBERGH FLD  PTSUNNY   66  49  54 S8        29.95F
POINT LOMA       N/A     69  56  64 SW10        N/A
NATIONAL CITY    N/A     65  54  66 SW3       29.95S
CHULA VISTA      N/A     66  56  70 W7        29.87S
IMPERIAL BEACH PTSUNNY   68  52  56 SW12      29.95S
BROWN FIELD    PTSUNNY   65  51  60 W12G18    29.94S
MIRAMAR MCAS   CLOUDY    68  51  54 SW6       29.93F
MONTGOMERY FLD CLOUDY    65  51  60 W7        29.94S

$$

NORTH SAN DIEGO COUNTY

CITY           SKY/WX    TMP DP  RH WIND       PRES   REMARKS
CAMP PENDLETON PTSUNNY   66  53  63 SW8       29.93F HAZE
OCEANSIDE AP   CLOUDY    65  51  60 SW9       29.93S
OCEANSIDE HBR    N/A     62  56  80 SW12      29.97S
VISTA            N/A     64  55  72 SW3       29.92S
CARLSBAD       CLOUDY    62  53  72 W9        29.93S
DEL MAR          N/A     63  55  75 W3        29.97F
LA JOLLA SCRIP   N/A     61  55  79 SW6       29.94S
FALLBROOK        N/A     68  57  68 SW5       29.92F
SAN MARCOS       N/A     62  51  67 SW7       29.93S
POWAY            N/A     69  53  57 CALM      29.95F

$$

EAST SAN DIEGO COUNTY

CITY           SKY/WX    TMP DP  RH WIND       PRES   REMARKS
RAMONA         MOSUNNY   62  49  62 W5        29.93F
SANTEE LAKES     N/A     66  54  66 CALM      29.93F
LA MESA          N/A     62  52  69 CALM      29.88S
JAMUL            N/A     66  53  63 W9        29.93F
DESCANSO N       N/A     60  52  73 W3        29.85F
MT. LAGUNA OBS   N/A     49  37  64 NE14      29.59
CAMPO            N/A     67  46  47 SW10      29.88F

$$

ORANGE COUNTY AND THE LOS ANGELES BASIN

CITY           SKY/WX    TMP DP  RH WIND       PRES   REMARKS
JOHN WAYNE AP  PTSUNNY   66  52  60 SW13      29.93S
LAKE FOREST FR   N/A     69  51  52 CALM      29.82S
HUNTINGTON BCH   N/A     66  56  70 S9        29.96S
LOS ALAMITOS   PTSUNNY   66  53  64 S10       29.93S
FULLERTON      CLOUDY    68  52  56 SW8       29.92S
LONG BEACH     PTSUNNY   66  53  63 S9        29.94S
L.A. AP        MOSUNNY   66  53  63 W10       29.93S
L.A. DOWNTOWN  SUNNY     70  51  51 CALM      29.91F

$$

THE INLAND EMPIRE

CITY           SKY/WX    TMP DP  RH WIND       PRES   REMARKS
CORONA         SUNNY     72  51  47 SW8       29.91F
CHINO          MOSUNNY   73  47  39 VRB5      29.92F
ONTARIO        MOSUNNY   69  47  45 VRB5      29.91F
SAN BERNARDINO MOSUNNY   70  48  46 CALM      29.92F
RIVERSIDE AP   SUNNY     68  46  45 VRB6      29.91F
MORENO VALLEY    N/A     68  54  60 S2        28.04F
MARCH ARB      SUNNY     67  48  51 VRB3      29.91F
HORSETHIEF CYN   N/A     70  44  37 E3        29.93F
PERRIS           N/A     68  51  55 S3          N/A
HEMET EAST       N/A     64  46  52 CALM      29.82F
FRENCH VALLEY  FAIR      64  48  55 S6        29.92F
TEMECULA         N/A     68  53  60 NW5       29.87F

$$

SAN BERNARDINO AND RIVERSIDE COUNTY MOUNTAINS

CITY           SKY/WX    TMP DP  RH WIND       PRES   REMARKS
BIG BEAR AP    MOSUNNY   50  32  50 E5        30.03S
ANGELUS OAKS     N/A     56  41  58 W3        29.86S
PINE COVE        N/A     49  40  71 CALM      29.96S

$$

SOUTHERN DESERT INCLUDING THE COACHELLA VALLEY

CITY           SKY/WX    TMP DP  RH WIND       PRES   REMARKS
PALM SPRINGS   SUNNY     82  41  23 S7        29.84F
THOUSAND PALMS   N/A     84  43  23 W3        29.82F
PALM DESERT      N/A     83  44  25 N2        30.13S
THERMAL        SUNNY     84  40  21 E7        29.80F
BLYTHE         SUNNY     77  43  29 VRB7G17   29.87S
IMPERIAL AP    SUNNY     82  41  23 NE8       29.84S
EL CENTRO NAS  SUNNY    N/A N/A N/A VRB7      29.86S
YUMA AZ        MOSUNNY   77  44  30 VRB3      29.85F
MEXICALI       MOSUNNY   77  39  25 NE9       29.86

$$

UPPER DESERT

CITY           SKY/WX    TMP DP  RH WIND       PRES   REMARKS
VICTORVILLE AP MOSUNNY   70  34  26 CALM      29.93S
HESPERIA         N/A     71  39  31 SE2       30.02F
PALMDALE       MOSUNNY   74  36  25 NE8       29.92F
LANCASTER      SUNNY     75  32  20 E9G21     29.92F
EDWARDS AFB    MOSUNNY   73  32  22 VRB6      29.89F
DAGGETT        SUNNY     73  39  29 E9        29.91S
29 PALMS N     MOSUNNY   71  38  29 VRB5      29.96F
NEEDLES        MOSUNNY   78  42  27 MISG      29.87S

$$

REGIONAL REPORTS

CITY           SKY/WX    TMP DP  RH WIND       PRES   REMARKS
SANTA BARBARA  SUNNY     63  54  72 SE15      29.92S
SANDBERG       SUNNY     69  30  23 E9G23     30.00R
LAS VEGAS NV   MOSUNNY   71  39  31 E10       29.88F
PHOENIX AZ     PTSUNNY   71  45  39 S6        29.87S
TIJUANA        PTSUNNY   64  48  55 SW6       29.96S
ENSENADA NW      N/A     65  32  29 W3        29.92S

$$

OFFSHORE ISLANDS

CITY           SKY/WX    TMP DP  RH WIND       PRES   REMARKS
CATALINA ARPT  MOSUNNY   60  51  72 W8        29.95R
SAN NICOLAS IS MOSUNNY  N/A N/A N/A S12       29.94R

$$

MARINE AND OFFSHORE BUOY REPORTS

STATION/POSITION SKY/WX   TEMP    WIND        PRES    SWELL
                          AIR SEA DIR/SP/G            HT/PER/DIR
                          (F)     (DEG/KT/KT) (MB)    (FT/S/D)
TANNER BANKS               58 59  260/  6/  8 1014.2R  10/320/11
S CLEMENTE BASIN           58 62  220/  6/  8 1014.2S   5/180/17
SAN NICOLAS IS.               59                N/A     5/180/17
SO. S. ROSA ISLA           56 56  130/  6/ 10 1013.5R   8/190/17
W. S. BARBARA CH           55 54  130/  8/ 10 1012.7R   7/310/11
M. S. BARBARA CH           57 56   90/  8/ 12 1013.5R
S. MONICA BASIN            57 60  170/  6/  8 1014.0R   3/210/16
S PEDRO CHANNEL               62                N/A     2/170/18
OCEANSIDE OFFSHR              64                N/A     3/190/17
TORREY PINES OTR              64                N/A     3/190/17
LA JOLLA 1                 61 65  250/  8/ 10 1013.9R
SAN DIEGO BAY                 67              1014.1R
POINT LOMA SOUTH              63                N/A     5/180/17

$$





USA.gov is the U.S. government's official web portal to all federal, state and local government web resources and services.